EW6028 Weather Reports


Display with metric or nautical units.
time (UTC)temp
F
wind
direction
speed
MPH
gust
MPH
rain 1hr
in
rain 24hr
in
rain mn
in
humidity
%
barometer
mb
20260508023004 49 355 2.0 4.0 0.00 0.00 0.00 93 1013.7
20260508021503 49 5 1.0 6.0 0.00 0.00 0.00 93 1013.7
20260508020001 49 5 0.0 4.0 0.00 0.00 0.00 93 1013.9
20260508014559 50 319 1.0 5.0 0.00 0.04 0.00 93 1014.0
20260508013057 50 5 1.0 8.0 0.00 0.04 0.00 93 1014.0
20260508011601 50 335 1.0 6.0 0.00 0.04 0.00 92 1014.1
20260508010052 50 33 2.0 5.0 0.00 0.04 0.00 92 1014.1
20260508004552 51 22 0.0 5.0 0.00 0.25 0.00 92 1014.2
20260508003051 50 5 0.0 4.0 0.00 0.25 0.00 92 1014.4
20260508001550 50 319 1.0 5.0 0.00 0.25 0.00 92 1014.5
20260508000105 51 19 0.0 0.0 0.00 0.25 0.00 92 1014.6
20260507234549 51 5 0.0 3.0 0.00 0.25 0.00 92 1014.6
20260507233045 51 360 1.0 4.0 0.00 0.25 0.00 92 1014.9
20260507231545 50 20 0.0 0.0 0.00 0.25 0.00 91 1015.3
20260507230039 51 20 0.0 1.0 0.00 0.25 0.00 90 1015.4
20260507224537 52 19 0.0 3.0 0.00 0.31 0.00 89 1015.4
20260507223037 52 11 1.0 3.0 0.00 0.31 0.00 89 1015.4
20260507221534 53 355 1.0 6.0 0.00 0.31 0.00 89 1015.3
20260507220031 53 351 0.0 2.0 0.00 0.31 0.00 89 1015.3
20260507214533 52 350 0.0 1.0 0.00 0.31 0.31 90 1015.1
20260507213037 53 350 0.0 1.0 0.00 0.31 0.31 89 1015.1
20260507211541 54 351 0.0 2.0 0.00 0.31 0.31 88 1015.0
20260507210029 53 21 0.0 0.0 0.00 0.31 0.31 88 1015.1
20260507204527 54 21 0.0 3.0 0.00 0.31 0.31 87 1015.0
20260507203026 54 23 0.0 1.0 0.00 0.31 0.31 86 1015.1
20260507201525 54 19 0.0 2.0 0.00 0.31 0.31 86 1015.0
20260507200024 56 19 0.0 4.0 0.00 0.31 0.31 83 1015.0
20260507194522 56 191 0.0 2.0 0.00 0.31 0.31 81 1014.9
20260507193023 57 190 0.0 2.0 0.00 0.31 0.31 83 1014.7
20260507191525 57 189 0.0 1.0 0.00 0.31 0.31 83 1014.6
20260507190023 58 189 0.0 2.0 0.00 0.31 0.31 80 1014.4
20260507184519 58 189 0.0 0.0 0.00 0.31 0.31 80 1014.3
20260507183019 59 189 1.0 2.0 0.00 0.31 0.31 76 1014.2
20260507181521 61 189 0.0 0.0 0.00 0.31 0.31 78 1014.2
20260507180021 62 189 0.0 0.0 0.00 0.31 0.31 74 1014.0
20260507174539 63 189 0.0 2.0 0.00 0.31 0.31 71 1013.9
20260507173022 64 189 1.0 3.0 0.00 0.31 0.31 69 1013.6
20260507171520 65 189 2.0 4.0 0.00 0.31 0.31 66 1013.6
20260507170018 67 188 1.0 3.0 0.00 0.31 0.31 62 1013.5
20260507164517 69 188 1.0 2.0 0.00 0.31 0.31 61 1013.5
20260507163020 71 188 0.0 2.0 0.00 0.31 0.31 57 1013.4
20260507161519 71 188 1.0 4.0 0.00 0.31 0.31 53 1013.5
20260507160016 72 332 1.0 3.0 0.00 0.31 0.31 49 1013.7
20260507154518 72 333 0.0 2.0 0.00 0.31 0.31 50 1013.7
20260507153017 72 355 0.0 3.0 0.00 0.31 0.31 54 1013.7
20260507151511 73 346 0.0 2.0 0.00 0.31 0.31 51 1013.7
20260507150008 71 341 1.0 3.0 0.00 0.31 0.31 55 1013.8
20260507144507 73 327 1.0 5.0 0.00 0.31 0.31 47 1013.9
20260507143005 73 47 0.0 4.0 0.00 0.31 0.31 46 1014.1
20260507141502 72 290 1.0 4.0 0.00 0.31 0.31 46 1014.2
20260507134551 72 335 2.0 6.0 0.00 0.31 0.31 47 1014.5
20260507133059 72 328 1.0 4.0 0.00 0.31 0.31 47 1014.6
20260507131613 71 9 1.0 6.0 0.00 0.31 0.31 50 1014.8
20260507130047 71 17 1.0 8.0 0.00 0.31 0.31 52 1015.0
20260507124553 71 5 2.0 6.0 0.00 0.31 0.31 55 1014.9
20260507123046 70 5 3.0 8.0 0.00 0.31 0.31 55 1014.9
20260507121544 70 19 2.0 4.0 0.00 0.31 0.31 55 1015.0
20260507120044 70 342 3.0 6.0 0.00 0.31 0.31 53 1015.2
20260507114543 70 221 2.0 6.0 0.00 0.31 0.31 64 1015.2
20260507113104 70 254 3.0 8.0 0.00 0.31 0.31 52 1015.2
20260507111542 70 5 1.0 7.0 0.00 0.31 0.31 60 1015.3
20260507110040 69 185 2.0 9.0 0.00 0.31 0.31 57 1015.3
20260507104539 68 208 3.0 10.0 0.00 0.31 0.31 63 1015.5
20260507103034 68 238 2.0 8.0 0.00 0.31 0.31 61 1015.6
20260507101531 68 169 1.0 9.0 0.00 0.31 0.31 70 1015.7
20260507100041 67 180 3.0 7.0 0.00 0.31 0.31 71 1015.7
20260507094526 66 212 1.0 7.0 0.00 0.31 0.31 71 1015.8
20260507093027 65 175 4.0 8.0 0.00 0.31 0.31 74 1015.9
20260507091522 65 182 3.0 7.0 0.00 0.31 0.31 73 1015.9
20260507090018 65 294 1.0 7.0 0.00 0.31 0.31 81 1015.9
20260507084538 64 187 3.0 7.0 0.00 0.31 0.31 79 1016.1
20260507083022 63 173 4.0 8.0 0.00 0.31 0.31 80 1016.2
20260507081512 63 175 1.0 6.0 0.00 0.31 0.31 82 1016.1
20260507080008 61 144 0.0 2.0 0.00 0.31 0.31 87 1016.1
20260507074507 60 132 0.0 7.0 0.00 0.31 0.31 88 1016.1
20260507073004 60 186 0.0 5.0 0.00 0.31 0.31 89 1016.0
20260507071502 59 187 0.0 5.0 0.00 0.31 0.31 90 1016.0
20260507070108 59 132 0.0 6.0 0.00 0.31 0.31 90 1015.8
20260507064602 59 128 1.0 5.0 0.00 0.31 0.31 90 1015.8
20260507063057 58 130 0.0 0.0 0.00 0.31 0.31 91 1015.7
20260507061555 58 173 0.0 5.0 0.00 0.31 0.31 91 1015.7
20260507060053 58 123 0.0 5.0 0.00 0.31 0.31 92 1015.5
20260507054552 57 142 0.0 4.0 0.00 0.31 0.31 92 1015.6
20260507053052 57 173 0.0 1.0 0.00 0.31 0.31 93 1015.6
20260507051549 57 175 0.0 1.0 0.00 0.31 0.31 93 1015.7
20260507050103 57 174 0.0 0.0 0.00 0.31 0.31 93 1015.5
20260507044551 57 172 0.0 3.0 0.00 0.31 0.31 93 1015.3
20260507043041 57 174 0.0 0.0 0.00 0.31 0.31 93 1015.1
20260507041544 57 174 0.0 0.0 0.00 0.31 0.31 93 1015.0
20260507040038 57 174 0.0 3.0 0.00 0.31 0.31 93 1014.8
20260507034541 57 293 0.0 2.0 0.00 0.32 0.31 93 1014.7
20260507033041 57 293 1.0 6.0 0.00 0.32 0.31 94 1014.7
20260507031536 57 114 0.0 7.0 0.00 0.32 0.31 94 1014.3
20260507030037 57 124 3.0 7.0 0.00 0.32 0.31 94 1014.5
20260507024542 57 121 2.0 7.0 0.00 0.35 0.31 94 1014.5